This is the latest recevied weather packets stored in our database for station/object N3EYQ. If no packets are shown the sender has not sent any weather packets the latest 1 day(s).
| Time | Temp. | Humidity | Pressure | Rain* | Wind** | Luminosity | Snow |
|---|---|---|---|---|---|---|---|
| 1778082068 | 17.22° C | 79% | 1007.9 hPa | 0 mm | - | - | - |
| 1778080868 | 17.22° C | 77% | 1008.3 hPa | 0 mm | - | - | - |
| 1778075467 | 19.44° C | 67% | 1008.3 hPa | 0 mm | - | - | - |
| 1778073667 | 19.44° C | 66% | 1007.9 hPa | 0 mm | - | - | - |
| 1778071866 | 19.44° C | 65% | 1007.9 hPa | 0 mm | - | - | - |
| 1778071266 | 19.44° C | 65% | 1008.3 hPa | 0 mm | - | - | - |
| 1778070666 | 19.44° C | 65% | 1007.9 hPa | 0 mm | - | - | - |
| 1778068866 | 18.89° C | 66% | 1008.3 hPa | 0 mm | - | - | - |
| 1778067665 | 18.89° C | 67% | 1008.3 hPa | 0 mm | - | - | - |
| 1778067065 | 18.33° C | 66% | 1008.3 hPa | 0 mm | - | - | - |
| 1778066465 | 18.33° C | 66% | 1008.3 hPa | 0 mm | - | - | - |
| 1778065865 | 17.78° C | 66% | 1007.9 hPa | 0 mm | - | - | - |
| 1778064665 | 17.22° C | 66% | 1007.9 hPa | 0 mm | - | - | - |
| 1778062265 | 17.22° C | 66% | 1007.6 hPa | 0 mm | - | - | - |
| 1778059263 | 16.67° C | 65% | 1007.6 hPa | 0 mm | - | - | - |
| 1778058063 | 16.11° C | 66% | 1007.6 hPa | 0 mm | - | - | - |
| 1778057463 | 16.11° C | 67% | 1007.9 hPa | 0 mm | - | - | - |
| 1778054462 | 16.67° C | 61% | 1008.3 hPa | 0 mm | - | - | - |
| 1778053862 | 17.22° C | 61% | 1007.9 hPa | 0 mm | - | - | - |
| 1778053262 | 17.78° C | 59% | 1008.3 hPa | 0 mm | - | - | - |
| 1778052061 | 18.33° C | 56% | 1008.3 hPa | 0 mm | - | - | - |
| 1778050861 | 20° C | 51% | 1008.3 hPa | 0 mm | - | - | - |
| 1778049662 | 21.11° C | 51% | 1008.3 hPa | 0 mm | - | - | - |
| 1778049061 | 21.11° C | 51% | 1008.3 hPa | 0 mm | - | - | - |
| 1778048461 | 21.11° C | 50% | 1008.6 hPa | 0 mm | - | - | - |
* Rain latest hour (hover to see other rain measurements)
** Current wind speed in m/s (hover to see current wind gust speed)